TimeCDT,TemperatureF,Dew PointF,Humidity,Sea Level PressureIn,VisibilityMPH,Wind Direction,Wind SpeedMPH,Gust SpeedMPH,PrecipitationIn,Events,Conditions,WindDirDegrees,DateUTC
12:53 AM,60.1,46.0,60,29.97,10.0,Calm,Calm,-,N/A,,Partly Cloudy,0,2012-09-22 05:53:00
1:53 AM,55.9,46.0,69,29.98,10.0,SSW,4.6,-,N/A,,Clear,210,2012-09-22 06:53:00
2:53 AM,55.0,46.0,72,29.99,10.0,WSW,3.5,-,N/A,,Clear,250,2012-09-22 07:53:00
3:53 AM,59.0,44.1,58,29.99,10.0,Calm,Calm,-,N/A,,Clear,0,2012-09-22 08:53:00
4:53 AM,54.0,46.0,75,30.02,9.0,West,4.6,-,N/A,,Clear,280,2012-09-22 09:53:00
5:53 AM,55.0,46.0,72,30.04,10.0,North,5.8,-,N/A,,Clear,10,2012-09-22 10:53:00
6:53 AM,52.0,45.0,77,30.08,10.0,West,5.8,-,N/A,,Partly Cloudy,270,2012-09-22 11:53:00
7:53 AM,59.0,43.0,55,30.12,10.0,North,11.5,-,N/A,,Scattered Clouds,10,2012-09-22 12:53:00
8:53 AM,62.1,44.1,52,30.16,10.0,NNE,10.4,19.6,N/A,,Partly Cloudy,20,2012-09-22 13:53:00
9:53 AM,64.9,37.0,36,30.19,10.0,NNE,18.4,26.5,N/A,,Clear,30,2012-09-22 14:53:00
10:53 AM,69.1,37.0,31,30.20,10.0,NE,15.0,-,N/A,,Clear,40,2012-09-22 15:53:00
11:53 AM,72.0,36.0,27,30.20,10.0,NE,18.4,-,N/A,,Clear,40,2012-09-22 16:53:00
12:53 PM,73.0,34.0,24,30.20,10.0,NNE,13.8,21.9,N/A,,Clear,20,2012-09-22 17:53:00
1:53 PM,75.9,36.0,23,30.19,10.0,NE,16.1,20.7,N/A,,Partly Cloudy,50,2012-09-22 18:53:00
2:53 PM,75.9,35.1,23,30.18,10.0,North,9.2,23.0,N/A,,Partly Cloudy,10,2012-09-22 19:53:00
3:53 PM,75.0,35.1,23,30.18,10.0,NNE,12.7,21.9,N/A,,Clear,30,2012-09-22 20:53:00
4:53 PM,73.9,35.1,24,30.18,10.0,NNE,13.8,-,N/A,,Clear,30,2012-09-22 21:53:00
5:53 PM,72.0,34.0,25,30.17,10.0,NE,16.1,-,N/A,,Partly Cloudy,40,2012-09-22 22:53:00
6:53 PM,70.0,30.9,24,30.19,10.0,NE,13.8,-,N/A,,Scattered Clouds,40,2012-09-22 23:53:00
7:53 PM,66.9,28.9,24,30.19,10.0,NE,11.5,-,N/A,,Mostly Cloudy,50,2012-09-23 00:53:00
8:53 PM,64.9,28.0,25,30.21,10.0,NE,10.4,-,N/A,,Mostly Cloudy,40,2012-09-23 01:53:00
9:53 PM,64.4,26.6,24,30.24,10.0,NE,10.4,-,N/A,,Mostly Cloudy,50,2012-09-23 02:53:00
10:53 PM,62.1,27.0,26,30.23,10.0,NE,9.2,-,N/A,,Mostly Cloudy,50,2012-09-23 03:53:00
11:53 PM,60.1,26.1,27,30.24,10.0,ENE,13.8,-,N/A,,Scattered Clouds,70,2012-09-23 04:53:00